Regional Weather Roundup
Issued by NWS

Home | Current Version | Previous Version | Graphics & Text | Print | Product List | Glossary On
Versions: 1 2 3 4 5 6 7 8 9 10 11 12 13 14 15 16 17 18 19 20 21 22 23 24 25 26 27 28 29 30 31 32 33 34 35 36 37 38 39 40 41 42 43 44 45 46 47 48 49 50
000
ASUS43 KFSD 262102
RWRSD

WEATHER ROUNDUP FOR SOUTH DAKOTA
NATIONAL WEATHER SERVICE SIOUX FALLS SD
400 PM CDT THU MAR 26 2015

NOTE: "FAIR" INDICATES FEW OR NO CLOUDS BELOW 12,000 FEET WITH NO
SIGNIFICANT WEATHER AND/OR OBSTRUCTIONS TO VISIBILITY.


SDZ001>005-009-010-012>017-262200-
NORTHWEST AND NORTH CENTRAL SOUTH DAKOTA

CITY           SKY/WX    TMP DP  RH WIND       PRES   REMARKS
BUFFALO          N/A     47  27  45 VRB3      30.06S
MOBRIDGE       CLOUDY    41  24  51 VRB3      30.17S
$$

SDZ012>016-024>037-041>051-057-063-072>074-262200-
SOUTHWEST AND SOUTH CENTRAL SOUTH DAKOTA

CITY           SKY/WX    TMP DP  RH WIND       PRES   REMARKS
RAPID CTY ARPT PTSUNNY   50  29  44 N15G22    30.11S
PIERRE         CLOUDY    34  31  88 CALM      30.18S
CUSTER         CLOUDY    44  23  43 N15G28    30.07S
ELLSWORTH AFB  CLOUDY    47  30  50 N15       30.11R
PHILIP         CLOUDY    41  28  60 E12       30.16R
PINE RIDGE     CLOUDY    49  27  42 N20G28    30.08R
SPEARFISH      FAIR      46  27  46 NW14      30.12S
WINNER         CLOUDY    35  30  82 NE10      30.16R WCI  27
$$

SDZ004>011-016>023-039-040-262200-
NORTHEAST SOUTH DAKOTA

CITY           SKY/WX    TMP DP  RH WIND       PRES   REMARKS
ABERDEEN       MOSUNNY   38  16  40 NE15      30.21F
WATERTOWN      PTSUNNY   34  17  50 N17       30.15F WCI  23
SISSETON         N/A     34  17  50 N21G28    30.20R WCI  22
$$

SDZ017-020-022-023-036>040-048>070-262200-
SOUTHEAST SOUTH DAKOTA

CITY           SKY/WX    TMP DP  RH WIND       PRES   REMARKS
SIOUX FALLS    CLOUDY    39  22  50 N12       30.14S
HURON          CLOUDY    40  21  46 N14       30.18S
MITCHELL       CLOUDY    39  28  64 NW8       30.18F
YANKTON        CLOUDY    36  27  69 NW7       30.17S
$$

ABBREVIATIONS USED IN REMARKS
   TC - TEMPERATURE IN CELSIUS
  WCI - WIND CHILL INDEX
   HX - HEAT INDEX
  VSB - VISIBILITY



USA.gov is the U.S. government's official web portal to all federal, state and local government web resources and services.